Vorticity
5 5 5 5 9 7 6 5 1 5 2 -6 7 8 11 -2 9 10 0 22 11 3 8 1 2 4 7 6 8 6 7 8 7 9 8 8 7 8 9 10 10 6 6 5 8 10 9 8 6
7 6 7 4 7 -0 5 5 3 3 -2 -0 12 11 9 0 13 -0 1 1 26 3 5 4 7 9 6 4 5 7 8 8 7 8 8 7 8 8 9 9 8 7 6 6 8 9 9 7 6
6 7 10 15 15 5 5 12 4 2 -7 2 5 13 9 10 4 10 0 3 5 15 7 8 4 5 5 6 5 5 9 8 8 7 8 7 9 10 9 8 8 7 6 8 7 7 9 5 6
6 8 12 7 -5 -7 -13 -9 -8 -5 1 3 8 6 4 13 9 4 11 -2 7 15 11 -4 -1 9 6 5 6 5 8 8 8 9 9 10 10 8 7 7 7 6 5 6 9 6 4 7 10
6 7 12 3 1 2 4 5 6 1 3 5 7 8 0 8 8 5 13 -3 11 7 3 1 14 8 6 6 7 5 6 8 9 9 8 9 8 7 7 6 6 6 8 8 7 9 8 11 9
8 2 2 -6 -4 -1 0 4 3 5 2 2 9 9 -1 1 13 12 19 -2 7 -0 -2 2 7 4 4 5 7 6 6 7 7 8 7 6 6 8 7 7 6 9 7 4 2 8 3 11 7
7 5 -1 2 4 6 5 5 5 7 7 5 5 13 6 6 9 21 16 3 3 -3 1 3 3 -0 6 7 7 6 5 5 6 8 7 6 7 8 8 7 8 6 6 5 10 13 6 8 10
10 8 6 5 6 7 7 7 7 6 9 4 6 6 16 1 11 19 14 5 1 -3 2 5 -1 -1 7 6 5 8 5 5 7 9 9 7 6 7 9 9 7 8 4 9 24 20 4 5 9
8 9 6 7 9 9 9 7 6 6 11 7 8 6 10 10 7 -4 31 10 2 0 1 2 -1 0 5 2 0 7 5 4 6 7 8 7 6 7 11 10 8 8 5 9 23 10 8 5 0
9 8 12 8 6 3 9 7 5 4 6 13 8 4 7 10 9 7 4 18 8 1 -1 1 -1 1 1 2 3 4 5 3 3 6 6 7 7 7 12 12 10 10 6 9 19 8 9 5 7
7 7 6 7 6 6 7 9 7 8 8 4 12 10 7 6 14 3 5 33 12 -1 2 2 1 -1 1 3 4 3 3 3 2 4 7 6 6 6 10 12 10 10 7 7 16 10 6 5 3
8 6 6 5 6 5 5 5 6 8 8 8 6 9 9 7 9 14 6 12 16 9 -0 2 1 0 -1 -1 4 2 3 3 3 2 5 6 5 6 7 11 14 12 10 11 20 10 8 6 4
6 7 8 2 4 7 7 7 7 6 5 6 6 5 8 8 7 9 8 9 23 12 8 1 2 -0 0 -2 1 4 1 2 3 2 2 5 4 5 6 6 15 15 14 11 12 8 5 3 5
1 5 9 5 4 7 7 4 12 8 6 16 0 6 6 7 7 8 8 10 5 22 5 14 3 -0 -1 -1 -1 2 2 1 3 3 2 3 3 3 4 5 6 17 16 11 4 8 4 2 6
6 -0 6 11 16 -10 8 11 -11 18 -10 4 11 8 7 6 7 5 5 9 10 1 12 10 16 7 2 -1 -3 2 5 2 2 4 4 1 3 2 2 1 3 7 19 15 9 4 3 3 8
4 18 14 -22 12 -1 5 1 -6 9 9 10 14 15 15 11 9 6 6 7 7 11 3 11 2 8 19 2 3 -1 -1 8 7 2 4 4 2 3 1 1 -0 0 6 20 16 10 7 4 3
11 -1 3 11 3 5 2 5 4 19 19 17 16 22 23 23 21 21 11 6 6 10 5 5 11 6 -2 14 -7 -0 1 1 13 8 5 4 3 2 3 1 -0 1 -0 5 17 18 14 13 6
-1 4 -1 4 0 20 0 4 2 10 16 18 16 13 11 11 9 25 18 25 5 10 10 7 10 5 4 7 9 6 0 7 13 11 6 6 5 4 2 3 1 1 1 0 4 12 19 15 13
0 4 5 6 40 -14 9 2 23 31 -6 12 7 9 6 7 23 13 5 14 32 21 14 8 7 14 -7 1 5 -2 7 9 7 7 14 11 8 5 4 4 3 2 2 3 -1 2 10 15 17
5 4 10 40 -29 6 12 5 33 -9 13 9 2 4 4 3 27 11 10 35 10 11 40 16 6 16 16 4 5 10 21 5 -4 2 4 0 10 10 14 9 5 4 4 3 2 1 2 6 9
-2 15 3 8 4 28 6 49 -16 12 37 -2 -4 6 6 -0 18 22 29 15 27 24 3 36 15 12 18 7 -5 8 15 11 7 4 0 2 3 4 2 8 13 7 5 4 5 3 2 3 4
16 -2 8 9 21 -2 13 -18 30 9 2 10 5 -10 8 5 28 39 10 13 23 43 15 32 22 1 20 10 6 -4 3 15 2 0 1 -0 4 1 -3 3 8 14 8 4 4 4 4 1 3
-4 7 9 17 16 24 16 20 -70 19 -8 16 -1 2 0 27 12 42 15 31 14 47 28 29 29 12 11 28 15 3 2 9 15 13 6 0 6 1 3 2 1 11 12 11 9 5 4 4 2
7 7 47 15 16 12 8 -0 -17 8 8 8 -14 3 15 13 58 22 48 29 30 44 23 32 33 7 7 11 32 -14 12 3 8 5 7 -3 8 4 -1 3 4 1 11 7 10 11 6 4 3
8 24 6 8 12 -6 4 29 -32 -11 12 -14 -3 26 10 15 32 33 26 15 28 36 23 55 19 6 9 11 11 23 -3 7 18 8 -0 -2 0 9 2 8 4 1 4 8 10 12 13 6 3
9 14 14 11 6 -19 47 3 -17 10 -22 11 14 15 -5 35 22 19 27 16 29 43 56 6 12 8 14 5 17 17 12 9 -10 10 11 6 3 -3 10 2 7 1 0 1 11 7 16 11 5
16 14 10 12 21 14 8 -8 51 -25 -6 18 28 1 5 35 25 14 24 22 20 27 22 21 9 7 2 1 10 13 6 12 15 1 15 -2 23 13 8 5 9 1 2 3 9 9 14 12 8
7 3 10 6 8 16 16 13 -4 -2 6 19 17 -1 7 17 25 17 33 33 19 7 3 3 4 7 1 10 5 9 -1 23 21 24 15 8 10 9 11 14 8 1 4 3 14 12 11 12 10
5 1 19 16 7 2 6 2 -1 -21 26 20 7 1 16 17 14 27 26 42 14 30 9 16 10 4 5 25 8 -5 18 39 29 18 6 4 0 -2 36 9 4 4 4 2 21 10 10 11 7
6 -4 8 13 12 -0 3 12 -10 7 22 11 -0 4 4 18 19 32 14 42 21 22 14 31 13 -10 10 15 17 23 3 11 24 20 21 17 21 24 8 21 15 1 8 24 12 9 8 10 8
Height
3149 3149 3150 3151 3157 3153 3152 3153 3151 3152 3152 3150 3152 3151 3150 3150 3151 3153 3150 3149 3149 3151 3154 3154 3154 3152 3151 3150 3151 3151 3151 3150 3150 3150 3150 3150 3150 3151 3150 3151 3151 3153 3155 3156 3157 3158 3159 3162 3164
3146 3146 3148 3149 3153 3151 3151 3150 3150 3150 3149 3149 3150 3150 3149 3148 3146 3147 3149 3149 3150 3152 3153 3154 3153 3152 3150 3150 3149 3150 3150 3149 3148 3148 3148 3148 3149 3149 3149 3149 3150 3152 3154 3155 3156 3157 3159 3161 3162
3143 3144 3146 3147 3147 3148 3148 3147 3147 3148 3147 3147 3148 3149 3146 3146 3144 3143 3145 3148 3150 3151 3152 3153 3153 3151 3150 3149 3148 3148 3148 3148 3148 3148 3147 3146 3147 3147 3147 3148 3149 3151 3152 3154 3154 3156 3158 3159 3161
3139 3141 3144 3144 3143 3145 3146 3145 3144 3145 3144 3143 3146 3148 3148 3143 3143 3142 3143 3146 3147 3151 3151 3151 3151 3150 3149 3149 3148 3147 3147 3147 3147 3147 3146 3146 3146 3146 3146 3146 3147 3149 3151 3153 3153 3155 3158 3159 3160
3136 3138 3139 3140 3140 3142 3142 3141 3141 3141 3141 3140 3142 3143 3145 3143 3142 3140 3142 3145 3145 3149 3150 3150 3149 3150 3149 3148 3148 3147 3147 3146 3147 3146 3146 3146 3146 3145 3145 3145 3146 3147 3149 3151 3153 3154 3156 3158 3160
3134 3135 3136 3137 3137 3138 3138 3139 3138 3138 3137 3137 3138 3140 3141 3139 3138 3139 3140 3143 3144 3145 3146 3147 3148 3148 3148 3147 3148 3147 3147 3146 3146 3146 3146 3146 3145 3145 3144 3145 3145 3146 3148 3150 3151 3153 3155 3157 3159
3131 3132 3132 3133 3133 3134 3136 3135 3134 3133 3133 3134 3134 3135 3137 3137 3136 3136 3138 3140 3142 3142 3143 3143 3146 3147 3146 3147 3147 3146 3146 3147 3146 3146 3145 3145 3145 3144 3144 3144 3145 3145 3146 3148 3148 3151 3153 3156 3158
3128 3129 3129 3129 3130 3131 3132 3130 3130 3129 3130 3130 3130 3129 3132 3132 3133 3133 3134 3137 3139 3140 3141 3141 3141 3142 3143 3145 3146 3146 3146 3146 3146 3145 3145 3144 3144 3143 3144 3143 3143 3143 3144 3145 3145 3148 3152 3155 3157
3125 3126 3125 3126 3126 3126 3128 3126 3126 3125 3124 3127 3127 3126 3126 3125 3127 3129 3130 3133 3135 3138 3138 3138 3138 3139 3140 3141 3143 3144 3145 3145 3145 3145 3145 3144 3144 3143 3142 3142 3142 3142 3143 3143 3144 3146 3150 3154 3157
3123 3124 3123 3124 3123 3122 3123 3122 3122 3120 3120 3125 3121 3120 3120 3120 3122 3124 3125 3126 3130 3133 3134 3135 3135 3135 3137 3138 3139 3140 3142 3143 3144 3144 3144 3144 3143 3142 3141 3140 3140 3140 3141 3142 3143 3145 3147 3152 3155
3121 3122 3121 3121 3120 3118 3118 3120 3120 3119 3119 3115 3116 3116 3116 3115 3117 3116 3118 3119 3122 3127 3129 3131 3132 3132 3133 3135 3136 3137 3139 3141 3141 3142 3142 3142 3141 3140 3139 3138 3139 3139 3139 3140 3142 3144 3147 3150 3154
3119 3118 3117 3117 3116 3114 3114 3115 3116 3116 3114 3114 3111 3112 3111 3111 3112 3113 3113 3113 3113 3118 3123 3125 3127 3128 3129 3131 3132 3133 3135 3138 3139 3139 3140 3141 3140 3139 3138 3137 3137 3137 3138 3139 3140 3144 3146 3149 3152
3115 3115 3114 3113 3113 3109 3109 3110 3107 3111 3109 3110 3109 3108 3107 3107 3106 3107 3108 3108 3107 3107 3112 3118 3122 3123 3124 3126 3128 3129 3131 3134 3136 3137 3137 3138 3138 3138 3137 3136 3135 3136 3136 3138 3139 3142 3144 3147 3151
3111 3112 3111 3110 3109 3105 3104 3105 3103 3104 3104 3104 3103 3102 3101 3099 3099 3099 3101 3102 3102 3101 3101 3107 3111 3116 3118 3120 3123 3125 3127 3130 3132 3135 3135 3135 3136 3136 3136 3135 3134 3135 3135 3136 3138 3140 3143 3146 3148
3107 3108 3107 3106 3104 3101 3098 3097 3100 3097 3096 3094 3095 3093 3090 3090 3088 3088 3089 3091 3093 3094 3093 3092 3099 3106 3108 3113 3116 3119 3121 3124 3127 3130 3132 3132 3133 3134 3134 3134 3133 3134 3133 3134 3136 3138 3140 3142 3144
3103 3103 3102 3102 3100 3098 3095 3084 3091 3093 3087 3085 3083 3079 3079 3080 3079 3077 3078 3080 3082 3083 3085 3085 3085 3089 3097 3103 3107 3111 3114 3117 3121 3123 3127 3129 3129 3130 3131 3132 3132 3132 3132 3133 3134 3136 3137 3140 3142
3100 3098 3098 3098 3096 3092 3091 3075 3083 3083 3078 3074 3071 3069 3066 3064 3067 3067 3065 3065 3068 3070 3072 3074 3076 3078 3083 3092 3098 3102 3106 3109 3113 3116 3119 3123 3125 3126 3127 3128 3129 3130 3131 3131 3132 3133 3134 3137 3139
3096 3094 3094 3093 3093 3088 3084 3071 3073 3076 3069 3065 3060 3056 3054 3052 3049 3049 3048 3048 3049 3053 3057 3060 3063 3068 3073 3079 3086 3091 3095 3099 3103 3109 3112 3116 3119 3121 3123 3124 3125 3127 3128 3129 3130 3131 3132 3133 3135
3093 3093 3091 3091 3088 3081 3077 3065 3067 3063 3061 3055 3051 3045 3042 3038 3033 3032 3033 3031 3027 3031 3037 3044 3049 3056 3060 3065 3071 3078 3084 3091 3094 3100 3105 3108 3112 3115 3117 3119 3120 3123 3125 3126 3128 3128 3129 3129 3131
3090 3088 3088 3085 3085 3078 3069 3055 3058 3060 3054 3051 3045 3039 3035 3029 3021 3016 3010 3010 3011 3009 3017 3025 3031 3039 3046 3053 3061 3069 3075 3082 3088 3093 3097 3101 3104 3108 3110 3113 3115 3117 3120 3122 3123 3125 3126 3127 3128
3087 3085 3084 3083 3076 3072 3065 3049 3049 3054 3050 3045 3039 3033 3028 3020 3009 2999 2992 2990 2990 2989 2995 3005 3015 3024 3031 3041 3049 3057 3064 3070 3077 3081 3088 3095 3098 3101 3105 3107 3109 3111 3113 3116 3118 3120 3121 3123 3123
3083 3081 3079 3077 3074 3071 3070 3055 3047 3045 3042 3040 3032 3025 3016 3007 2993 2984 2978 2972 2970 2970 2973 2986 3000 3011 3019 3030 3036 3046 3053 3059 3066 3073 3082 3086 3090 3094 3098 3101 3103 3104 3107 3109 3112 3114 3116 3117 3118
3080 3077 3075 3071 3071 3069 3066 3063 3046 3045 3039 3031 3027 3020 3010 2998 2985 2970 2963 2956 2952 2951 2956 2968 2984 2998 3008 3016 3025 3034 3043 3051 3060 3066 3072 3077 3082 3087 3091 3094 3097 3098 3100 3102 3105 3107 3109 3111 3113
3075 3073 3069 3068 3069 3068 3062 3063 3047 3044 3040 3030 3023 3014 3002 2988 2976 2959 2952 2945 2940 2938 2942 2955 2970 2987 2997 3007 3014 3025 3034 3042 3049 3056 3062 3068 3074 3078 3083 3086 3089 3092 3094 3095 3098 3100 3102 3105 3107
3074 3071 3069 3069 3067 3062 3061 3060 3049 3044 3038 3031 3020 3007 2996 2984 2971 2956 2948 2940 2933 2933 2937 2947 2965 2979 2990 3001 3009 3018 3025 3033 3041 3048 3054 3059 3064 3068 3074 3079 3081 3085 3088 3089 3091 3093 3095 3098 3101
3074 3074 3074 3072 3068 3061 3054 3052 3047 3042 3037 3029 3021 3007 2994 2978 2966 2954 2946 2940 2934 2931 2934 2948 2961 2975 2985 2996 3003 3010 3017 3024 3032 3038 3045 3050 3056 3062 3067 3071 3074 3077 3080 3082 3083 3084 3087 3090 3093
3074 3074 3074 3072 3069 3064 3052 3048 3042 3036 3029 3022 3012 3001 2986 2975 2963 2954 2947 2941 2939 2937 2940 2949 2959 2971 2980 2990 2998 3003 3009 3014 3023 3029 3034 3041 3047 3052 3058 3062 3066 3069 3072 3073 3074 3076 3078 3082 3085
3074 3074 3073 3071 3068 3062 3051 3048 3041 3029 3020 3014 3007 2998 2989 2977 2965 2956 2949 2945 2944 2944 2945 2952 2958 2966 2974 2981 2989 2995 2999 3006 3013 3019 3024 3030 3035 3040 3045 3051 3057 3060 3063 3065 3066 3067 3069 3073 3076
3072 3072 3071 3070 3069 3067 3054 3044 3041 3035 3028 3017 3010 3002 2992 2981 2969 2958 2953 2948 2946 2943 2946 2951 2958 2964 2971 2977 2982 2988 2991 2995 3000 3006 3012 3017 3023 3030 3034 3039 3045 3050 3054 3055 3056 3058 3061 3064 3067
3070 3070 3068 3066 3068 3065 3059 3045 3039 3035 3027 3020 3011 3003 2995 2985 2973 2963 2955 2947 2947 2946 2946 2949 2956 2963 2967 2970 2974 2979 2984 2989 2991 2998 3003 3008 3016 3017 3024 3027 3034 3042 3045 3046 3048 3049 3052 3055 3058